EDT,Max TemperatureF,Mean TemperatureF,Min TemperatureF,Max Dew PointF,MeanDew PointF,Min DewpointF,Max Humidity, Mean Humidity, Min Humidity, Max Sea Level PressureIn, Mean Sea Level PressureIn, Min Sea Level PressureIn, Max VisibilityMiles, Mean VisibilityMiles, Min VisibilityMiles, Max Wind SpeedMPH, Mean Wind SpeedMPH, Max Gust SpeedMPH,PrecipitationIn, CloudCover, Events, WindDirDegrees
2013-3-1,53,42,32,34,31,28,93,69,44,30.00,29.95,29.90,10,10,10,15,6,25,0.00,2,,269
2013-3-2,42,37,32,43,34,30,100,87,76,29.98,29.93,29.90,10,10,7,15,6,21,0.00,6,Rain,253
2013-3-3,48,39,30,32,28,25,100,71,43,30.06,29.99,29.95,10,10,10,15,5,18,0.00,4,,274
2013-3-4,57,40,23,32,25,21,93,58,25,30.22,30.13,30.05,10,10,10,10,2,,0.00,0,,263
2013-3-5,69,52,35,59,43,32,100,70,52,30.12,29.95,29.72,10,10,5,25,8,36,0.00,5,Rain,198
2013-3-6,50,42,33,36,29,23,87,61,43,30.16,29.95,29.79,10,10,10,26,18,40,0.00,1,,284
2013-3-7,59,44,28,34,31,28,100,70,36,30.27,30.21,30.16,10,10,10,13,3,18,0.00,0,,296
2013-3-8,60,46,32,34,29,27,93,61,27,30.34,30.28,30.22,10,10,7,13,7,20,0.00,0,,21
2013-3-9,64,48,32,37,32,28,93,60,30,30.38,30.31,30.26,10,10,7,10,2,,0.00,0,,62
2013-3-10,69,52,35,48,41,34,100,66,35,30.31,30.25,30.18,10,10,10,12,3,18,0.00,0,,131
2013-3-11,69,58,46,55,48,34,88,66,53,30.22,30.05,29.88,10,10,10,20,8,30,0.00,3,,142
2013-3-12,68,60,51,59,49,37,100,70,40,30.03,29.90,29.82,10,9,2,14,9,20,0.00,4,Rain,237
2013-3-13,60,48,35,36,31,27,87,51,27,30.20,30.11,30.04,10,10,10,24,9,34,0.00,0,,283
2013-3-14,55,42,30,32,26,21,87,57,30,30.36,30.26,30.21,10,10,5,12,5,18,0.00,0,,308
2013-3-15,71,52,32,41,34,25,93,53,31,30.26,30.15,30.03,10,10,10,23,6,26,0.00,0,,232
2013-3-16,78,66,53,46,43,41,72,47,28,30.04,29.97,29.88,10,10,10,24,13,32,0.00,0,,232
2013-3-17,75,64,53,54,51,45,88,63,43,30.05,30.01,29.96,10,10,10,17,9,24,0.00,0,,223
2013-3-18,64,55,46,61,54,46,100,91,77,30.10,30.01,29.87,10,9,2,21,6,29,0.00,7,Rain-Thunderstorm,75
2013-3-19,71,60,48,54,38,30,100,43,23,30.07,29.98,29.90,10,8,0,18,7,25,0.00,4,Fog-Rain,278
2013-3-20,60,51,42,34,28,23,61,42,29,30.16,30.02,29.88,10,10,10,10,5,,0.00,2,,334
2013-3-21,53,43,33,30,24,18,81,48,24,30.00,29.90,29.86,10,10,7,20,8,31,0.00,0,,282
2013-3-22,50,42,33,36,25,19,81,55,40,30.11,30.07,30.00,10,10,10,9,3,,0.00,6,,139
2013-3-23,51,46,41,43,38,34,100,82,71,30.07,30.00,29.92,10,7,1,13,3,17,0.00,8,Rain-Thunderstorm,69
2013-3-24,48,46,44,46,46,45,100,100,100,29.92,29.67,29.59,10,7,2,18,8,25,0.00,8,Rain-Thunderstorm,33
2013-3-25,50,44,37,45,29,25,100,58,43,30.02,29.81,29.65,10,10,4,30,15,40,0.00,4,,272
2013-3-26,50,41,32,30,28,27,87,63,43,30.24,30.08,30.01,10,10,10,15,11,23,0.00,3,,279
2013-3-27,55,42,28,32,29,27,93,65,36,30.32,30.26,30.22,10,10,5,15,5,20,0.00,0,,290
2013-3-28,60,45,30,32,30,27,93,60,29,30.36,30.29,30.23,10,10,7,13,4,21,0.00,0,,322
2013-3-29,68,49,30,37,31,28,93,54,26,30.38,30.31,30.24,10,10,10,10,3,,0.00,2,,62
2013-3-30,71,60,48,52,44,34,82,57,38,30.26,30.17,30.08,10,10,10,9,3,16,0.00,5,Rain,128
2013-3-31,77,66,55,63,55,52,100,75,44,30.08,29.99,29.90,10,10,5,18,7,33,0.00,7,Rain-Thunderstorm,218